Weather History for Staverton, United Kingdom

Change the Weather History Date:

Friday, August 16, 2013

  Actual Average Record
Temperature  
Mean Temperature 70 °F -  
Max Temperature 77 °F 67 °F 78 °F (2002)
Min Temperature 62 °F 57 °F 53 °F (2007)
Cooling Degree Days 4    
Growing Degree Days 20 (Base 50)    
Moisture  
Dew Point 58 °F    
Average Humidity 67    
Maximum Humidity 88    
Minimum Humidity 41    
Precipitation  
Precipitation 0.00 in - - ()
Sea Level Pressure  
Sea Level Pressure 29.93 in    
Wind  
Wind Speed 7 mph ()    
Max Wind Speed 12 mph    
Max Gust Speed -    
Visibility 5.9 miles    
Events Rain    
Averages and records for this station are not official NWS values.
T = Trace of Precipitation, MM = Missing Value Source: Averaged Metar Reports

Daily Weather History Graph

Daily Weather History Graph

Search for Another Location

Airport:

Trip Planner

Search our weather history database for the weather conditions in past years. The results will help you decide how hot, cold, wet, or windy it might be!

Date:

Astronomy

Aug. 16, 2013 Rise Set
Actual Time 5:54 AM BST 8:29 PM BST
Civil Twilight 5:16 AM BST 9:07 PM BST
Nautical Twilight 4:28 AM BST 9:55 PM BST
Astronomical Twilight 3:29 AM BST 10:53 PM BST
Moon 4:49 PM BST (8/16) 12:29 AM BST (8/16)
Length of Visible Light 15h 50m
Length of Day
14h 35m
Waxing Gibbous, 72% of the Moon is Illuminated
Aug 16
Waxing Gibbous
Aug 21
Full
Aug 28
Last Quarter
Sep 5
New
Sep 12
First Quarter

Hourly Weather History & Observations

Time (BST) Temp. Dew Point Humidity Pressure Visibility Wind Dir Wind Speed Gust Speed Precip Events Conditions
7:50 AM 62.6 °F 59.0 °F 88% 29.89 in 6.2 mi South 10.4 mph - N/A Rain Rain
8:20 AM 64.4 °F 59.0 °F 83% 29.89 in 6.2 mi South 11.5 mph - N/A Rain Light Rain
8:50 AM 64.4 °F 60.8 °F 88% 29.89 in 6.2 mi SSW 9.2 mph - N/A   Mostly Cloudy
9:20 AM 64.4 °F 60.8 °F 88% 29.92 in 6.2 mi SSW 9.2 mph - N/A   Mostly Cloudy
10:20 AM 66.2 °F 62.6 °F 88% 29.92 in 4.3 mi SSW 10.4 mph - N/A Rain Light Rain
10:50 AM 66.2 °F 62.6 °F 88% 29.92 in 1.9 mi SW 10.4 mph - N/A Rain Rain
11:20 AM 66.2 °F 62.6 °F 88% 29.92 in 6.2 mi WSW 4.6 mph - N/A Rain Light Rain
11:50 AM 68.0 °F 62.6 °F 83% 29.92 in 6.2 mi WSW 4.6 mph - N/A   Scattered Clouds
12:20 PM 68.0 °F 60.8 °F 78% 29.95 in 6.2 mi WNW 8.1 mph - N/A   Scattered Clouds
12:50 PM 71.6 °F 60.8 °F 69% 29.92 in 6.2 mi WNW 4.6 mph - N/A   Scattered Clouds
1:20 PM 71.6 °F 59.0 °F 64% 29.92 in 6.2 mi WNW 5.8 mph - N/A   Scattered Clouds
1:50 PM 71.6 °F 55.4 °F 57% 29.92 in 6.2 mi WNW 4.6 mph - N/A   Scattered Clouds
2:20 PM 75.2 °F 59.0 °F 57% 29.92 in 6.2 mi WNW 5.8 mph - N/A   Scattered Clouds
2:50 PM 75.2 °F 55.4 °F 50% 29.95 in 6.2 mi West 4.6 mph - N/A   Scattered Clouds
3:20 PM 73.4 °F 55.4 °F 53% 29.92 in 6.2 mi West 6.9 mph - N/A   Partly Cloudy
3:50 PM 75.2 °F 53.6 °F 47% 29.92 in 6.2 mi West 5.8 mph - N/A   Partly Cloudy
4:20 PM 75.2 °F 51.8 °F 44% 29.92 in 6.2 mi WSW 4.6 mph - N/A   Partly Cloudy
4:50 PM 77.0 °F 51.8 °F 41% 29.92 in 6.2 mi WNW 6.9 mph - N/A   Partly Cloudy
5:20 PM 75.2 °F 55.4 °F 50% 29.95 in 6.2 mi West 4.6 mph - N/A   Partly Cloudy
5:50 PM 73.4 °F 57.2 °F 57% 29.95 in 6.2 mi WSW 6.9 mph - N/A   Partly Cloudy
6:20 PM 73.4 °F 55.4 °F 53% 29.95 in 6.2 mi WSW 9.2 mph - N/A   Partly Cloudy
6:50 PM 73.4 °F 59.0 °F 61% 29.95 in 6.2 mi WSW 6.9 mph - N/A   Partly Cloudy
7:20 PM 71.6 °F 59.0 °F 64% 29.95 in 6.2 mi SW 5.8 mph - N/A   Partly Cloudy
8:50 PM 64.4 °F 53.6 °F 68% 29.98 in - West 4.6 mph - N/A   Clear